STARLINK-4106 (53145 NORAD) Tracking and Keplerian Element Data

This shows tracking and keplerian element data for the satellite.

Feedback or suggestion? Click here.




ElementValue
Catalog53145
NameSTARLINK-4106
Epoch Orbit1171
Epoch Day270.25001157
Epoch Year2022
RAAN67.9469
Inclination53.217
Eccentricity0.0001624
Argument of Perigee48.471
Mean Anonmoly159.9088
Mean Motion15.08823264
Decay Rate-8.758E-05
L11 53145U 22083P 22270.25001157 -.00008758 00000+0 -53307-3 0 9997
L22 53145 53.2170 67.9469 0001624 48.4710 159.9088 15.08823264 11715

Live tracking and technical data element details for STARLINK-4106 (NORAD 53145). STARLINK-4106 can be tracked NOW for your location showing map with azimuth and elevation plus other details from your city location.

Track the satellite on the map from your city or location and see movement details for azimuth, elevation, latitude, longitude, range, height, and movement on the map or in text.







IsCatalogInMostPopularTable: catalog: 53145, numindb: 6
Update: records affected: 1



GetName: 53145 STARLINK-4106

Hit Count: updated at: Wed, 28 Sep 2022 21:35:19 GMT